TimeCST,TemperatureF,Dew PointF,Humidity,Sea Level PressureIn,VisibilityMPH,Wind Direction,Wind SpeedMPH,Gust SpeedMPH,PrecipitationIn,Events,Conditions,WindDirDegrees,DateUTC
12:08 AM,19.4,17.6,93,29.96,5.0,NW,10.4,-,0.00,Snow,Light Snow,310,2013-01-03 06:08:00
12:55 AM,21.0,17.1,85,30.04,8.0,NW,10.4,-,0.00,Snow,Light Snow,320,2013-01-03 06:55:00
1:55 AM,21.0,17.1,85,30.05,9.0,NNW,12.7,20.7,0.00,Snow,Light Snow,330,2013-01-03 07:55:00
2:12 AM,21.2,17.6,86,29.97,9.0,NW,12.7,20.7,0.00,Snow,Light Snow,320,2013-01-03 08:12:00
2:55 AM,21.0,17.1,85,30.06,8.0,NW,12.7,20.7,0.00,Snow,Light Snow,320,2013-01-03 08:55:00
3:55 AM,19.9,15.1,81,30.09,9.0,NNW,18.4,23.0,0.00,Snow,Light Snow,330,2013-01-03 09:55:00
4:55 AM,19.0,14.0,81,30.11,8.0,NW,13.8,21.9,0.00,Snow,Light Snow,310,2013-01-03 10:55:00
5:55 AM,17.1,12.0,81,30.14,6.0,NW,15.0,21.9,0.00,Snow,Light Snow,320,2013-01-03 11:55:00
6:20 AM,15.8,10.4,79,30.05,5.0,NW,15.0,21.9,0.00,Snow,Light Snow,310,2013-01-03 12:20:00
6:55 AM,12.0,7.0,80,30.16,3.0,NW,18.4,24.2,0.00,Snow,Light Snow,310,2013-01-03 12:55:00
7:55 AM,12.0,7.0,80,30.17,8.0,NW,13.8,20.7,0.00,Snow,Light Snow,310,2013-01-03 13:55:00
8:52 AM,12.2,6.8,79,30.08,10.0,NW,9.2,18.4,0.00,,Scattered Clouds,320,2013-01-03 14:52:00
8:55 AM,12.0,6.1,77,30.18,10.0,NW,8.1,-,0.00,,Scattered Clouds,320,2013-01-03 14:55:00
9:55 AM,12.9,6.1,74,30.19,10.0,NW,10.4,-,0.00,Snow,Light Snow,310,2013-01-03 15:55:00
10:02 AM,12.2,6.8,79,30.10,9.0,WNW,12.7,-,0.00,Snow,Light Snow,300,2013-01-03 16:02:00
10:55 AM,12.9,5.0,71,30.19,10.0,West,12.7,-,0.00,,Scattered Clouds,280,2013-01-03 16:55:00
11:55 AM,16.0,5.0,62,30.17,10.0,WNW,9.2,-,N/A,,Partly Cloudy,290,2013-01-03 17:55:00
12:55 PM,18.0,5.0,57,30.13,10.0,West,11.5,-,N/A,,Clear,260,2013-01-03 18:55:00
1:55 PM,19.9,6.1,55,30.11,10.0,WSW,12.7,-,N/A,,Clear,250,2013-01-03 19:55:00
2:55 PM,19.9,3.0,48,30.09,10.0,WSW,12.7,-,N/A,,Clear,250,2013-01-03 20:55:00
3:55 PM,19.0,3.0,50,30.09,10.0,WSW,13.8,-,N/A,,Clear,250,2013-01-03 21:55:00
4:55 PM,17.1,3.0,54,30.08,10.0,WSW,16.1,-,N/A,,Clear,250,2013-01-03 22:55:00
5:55 PM,16.0,5.0,62,30.05,10.0,WSW,19.6,-,N/A,,Clear,250,2013-01-03 23:55:00
6:55 PM,14.0,6.1,71,30.04,10.0,WSW,21.9,-,N/A,,Clear,250,2013-01-04 00:55:00
7:55 PM,12.9,6.1,74,30.01,10.0,WSW,21.9,31.1,N/A,,Clear,240,2013-01-04 01:55:00
8:55 PM,12.9,8.1,81,29.98,10.0,WSW,24.2,34.5,N/A,,Clear,250,2013-01-04 02:55:00
9:55 PM,15.1,10.0,80,29.93,10.0,WSW,21.9,32.2,N/A,,Clear,240,2013-01-04 03:55:00
10:55 PM,15.1,10.0,80,29.92,10.0,WSW,21.9,31.1,N/A,,Clear,250,2013-01-04 04:55:00
11:55 PM,16.0,10.0,77,29.94,10.0,West,13.8,-,N/A,,Clear,280,2013-01-04 05:55:00